Location: Ammerl�gen
(47.2167°N, 9.6000°E)
Time: 09:17:58
(UTC+00:00)

Cosmos 676 Rocket - Pass Details

Date: 21 April 2021
Orbit: 755 x 783 km, 74.0° (Epoch: 06 May)

Event Time Altitude Azimuth Distance (km) Brightness Sun altitude
Exits shadow 20:15:18 25° 169° (SSE) 1,506 5.1 -17.7°
Maximum altitude 20:18:05 50° 106° (ESE) 962 4.1 -18.1°
Drops below altitude 10° 20:23:04 10° 32° (NNE) 2,291 6.6 -18.7°
Sets 20:25:30 0° 27° (NNE) 3,220 7.5 -19.0°
